Flag for Germany Weather past 2 weeks in Gaggenau, Baden-Württemberg, Germany

Now
57 °F

Scattered showers. Passing clouds.


Feels Like: 52 °F
Forecast: 41 / 47 °F
Wind: 24 mph from Southwest

Location: Karlsruhe - Baden Wurttemberg

Current Time: Mar 31, 2015 at 7:42:56 AM

Latest Report: Mar 31, 2015 at 7:20 AM


Visibility: N/A

Pressure: 29.59 "Hg

Humidity: 63%

Dew point: 45 °F

Location of GaggenauLocation

Historic Weather in Gaggenau — Graph

°F

Gaggenau temperature yesterday

Maximum temperature yesterday: 54 °F (at 3:20 PM)
Minimum temperature yesterday: 43 °F (at 10:50 PM)
Average temperature yesterday: 50 °F

Past Weeks' High & Low Weather Summary

 TemperatureHumidityPressure
High64 °F (Mar 18, 2:50 PM)100% (Mar 18, 7:50 AM)30.27 "Hg (Mar 18, 7:50 AM)
Low30 °F (Mar 24, 5:20 AM)33% (Mar 30, 5:20 PM)29.59 "Hg (Mar 29, 9:20 PM)
Average48 °F66%30.01 "Hg
* Reported Mar 16 5:20 AM — Mar 31 6:20 AM, Gaggenau, Weather by CustomWeather, © 2015

Note: Actual official high and low records may vary slightly from our data, if they occured in-between our weather recording intervals... More about our weather records

Advertising

Gaggenau weather history for previous 24 hours

 ConditionsComfort  
Time TempWeatherWind HumidityBarometerVisibility
6:20 AM
Tue, Mar 31
55 °FLight rain. Partly cloudy.20 mph72%29.65 "HgN/A
5:50 AM54 °FLight rain. Partly cloudy.23 mph77%29.65 "Hg6 mi
5:20 AM54 °FPassing clouds.28 mph77%29.62 "HgN/A
4:50 AM54 °FPassing clouds.28 mph77%29.65 "HgN/A
11:20 PM
Mon, Mar 30
45 °FPassing clouds.7 mph66%29.92 "HgN/A
10:50 PM43 °FClear.6 mph66%29.95 "Hg10 mi
10:20 PM48 °FPassing clouds.6 mph50%29.95 "HgN/A
9:50 PM48 °FClear.6 mph54%29.98 "Hg10 mi
9:20 PM48 °FClear.7 mph54%29.98 "Hg10 mi
8:50 PM50 °FSunny.8 mph50%29.98 "Hg10 mi
8:20 PM50 °FSunny.8 mph47%29.95 "Hg10 mi
7:50 PM52 °FSunny.12 mph41%29.95 "Hg10 mi
7:20 PM54 °FPassing clouds.14 mph38%29.92 "HgN/A
6:50 PM52 °FPassing clouds.14 mph41%29.92 "HgN/A
6:20 PM52 °FPassing clouds.13 mph38%29.89 "HgN/A
5:50 PM52 °FPassing clouds.16 mph38%29.89 "HgN/A
5:20 PM54 °FScattered showers. Partly sunny.17 mph33%29.86 "HgN/A
4:50 PM54 °FPassing clouds.16 mph35%29.86 "HgN/A
4:20 PM54 °FScattered showers. Broken clouds.18 mph38%29.86 "HgN/A
3:50 PM52 °FScattered showers. Broken clouds.18 mph44%29.83 "HgN/A
3:20 PM54 °FPassing clouds.16 mph41%29.83 "HgN/A
2:50 PM52 °FScattered clouds.7 mph54%29.83 "HgN/A
2:20 PM50 °FScattered clouds.8 mph62%29.83 "HgN/A
1:50 PM48 °FScattered showers. Scattered clouds.12 mph71%29.80 "HgN/A
1:20 PM52 °FScattered showers. Scattered clouds.17 mph62%29.77 "HgN/A
12:50 PM50 °FScattered showers. Scattered clouds.14 mph62%29.77 "HgN/A
12:20 PM48 °FScattered showers. Partly sunny.12 mph71%29.74 "HgN/A
11:50 AM48 °FSprinkles. Partly sunny.16 mph66%29.74 "Hg5 mi
11:20 AM52 °FPartly sunny.14 mph54%29.71 "HgN/A
10:50 AM52 °FScattered clouds.18 mph58%29.71 "HgN/A
10:20 AM50 °FScattered showers. Partly sunny.14 mph62%29.68 "HgN/A
9:50 AM50 °FScattered showers. Partly sunny.14 mph67%29.68 "HgN/A
9:20 AM48 °FBroken clouds.14 mph71%29.68 "HgN/A
8:50 AM48 °FScattered clouds.12 mph71%29.65 "HgN/A
8:20 AM48 °FScattered clouds.12 mph71%29.65 "HgN/A
7:50 AM48 °FPassing clouds.12 mph76%29.62 "HgN/A
7:20 AM48 °FPassing clouds.15 mph76%29.62 "HgN/A
Weather by CustomWeather, © 2015

See weather overviewHow to use our weather pages